QPF
0.00 0.01 0.02 0.02 0.02 0.02 0.02 0.02 0.02 0.02 0.02 0.04 0.08 0.09 0.05 0.05 0.05 0.05 0.08 0.10 0.09 0.07 0.06 0.04 0.04 0.05 0.05 0.05 0.03 0.02 0.02 0.02 0.01 0.01 0.01 0.01 0.01 0.02 0.02 0.02 0.02 0.02 0.03
0.00 0.00 0.02 0.02 0.02 0.02 0.02 0.02 0.02 0.02 0.02 0.02 0.03 0.05 0.07 0.06 0.06 0.06 0.07 0.10 0.11 0.09 0.08 0.07 0.05 0.05 0.06 0.04 0.03 0.01 0.01 0.01 0.01 0.01 0.01 0.01 0.01 0.02 0.02 0.02 0.01 0.03 0.03
0.00 0.00 0.01 0.02 0.02 0.02 0.02 0.02 0.02 0.02 0.01 0.01 0.02 0.02 0.05 0.07 0.05 0.04 0.05 0.06 0.07 0.10 0.09 0.08 0.07 0.06 0.05 0.03 0.02 0.01 0.01 0.01 0.01 0.00 0.00 0.01 0.02 0.03 0.03 0.03 0.03 0.04 0.04
0.00 0.00 0.01 0.02 0.02 0.02 0.02 0.02 0.03 0.02 0.02 0.02 0.02 0.02 0.02 0.03 0.04 0.05 0.04 0.05 0.08 0.13 0.10 0.08 0.08 0.06 0.04 0.03 0.02 0.01 0.01 0.01 0.00 0.00 0.00 0.01 0.02 0.03 0.04 0.03 0.03 0.04 0.04
0.00 0.00 0.01 0.02 0.03 0.03 0.03 0.02 0.03 0.03 0.02 0.02 0.02 0.02 0.02 0.02 0.02 0.03 0.04 0.05 0.07 0.09 0.07 0.06 0.05 0.05 0.05 0.04 0.03 0.01 0.01 0.01 0.01 0.00 0.01 0.01 0.02 0.03 0.04 0.04 0.04 0.03 0.03
0.01 0.01 0.01 0.02 0.03 0.03 0.03 0.03 0.03 0.03 0.02 0.02 0.03 0.03 0.02 0.02 0.03 0.03 0.03 0.04 0.05 0.06 0.04 0.03 0.03 0.04 0.05 0.04 0.02 0.01 0.01 0.01 0.01 0.01 0.01 0.01 0.02 0.04 0.03 0.04 0.04 0.04 0.03
0.01 0.01 0.01 0.02 0.03 0.03 0.04 0.03 0.03 0.03 0.02 0.02 0.02 0.02 0.02 0.02 0.03 0.03 0.02 0.02 0.04 0.05 0.04 0.03 0.03 0.03 0.05 0.04 0.02 0.01 0.00 0.01 0.01 0.01 0.02 0.02 0.03 0.03 0.03 0.03 0.03 0.03 0.02
0.01 0.01 0.01 0.03 0.03 0.03 0.04 0.03 0.02 0.02 0.02 0.02 0.01 0.01 0.02 0.03 0.02 0.02 0.02 0.02 0.02 0.05 0.06 0.04 0.03 0.02 0.03 0.03 0.03 0.01 0.01 0.00 0.01 0.01 0.02 0.02 0.02 0.03 0.03 0.03 0.03 0.03 0.02
0.01 0.01 0.02 0.03 0.03 0.03 0.03 0.03 0.02 0.02 0.02 0.02 0.01 0.01 0.02 0.03 0.03 0.02 0.01 0.02 0.02 0.03 0.05 0.07 0.04 0.02 0.03 0.03 0.03 0.02 0.01 0.01 0.01 0.02 0.02 0.02 0.02 0.04 0.04 0.04 0.05 0.04 0.03
0.01 0.01 0.02 0.03 0.03 0.03 0.04 0.03 0.03 0.02 0.02 0.02 0.02 0.01 0.01 0.02 0.03 0.03 0.01 0.01 0.02 0.02 0.02 0.04 0.05 0.03 0.03 0.03 0.03 0.03 0.01 0.01 0.01 0.02 0.02 0.03 0.03 0.05 0.06 0.07 0.08 0.05 0.04
0.01 0.01 0.02 0.03 0.04 0.04 0.04 0.04 0.03 0.02 0.01 0.02 0.03 0.02 0.01 0.02 0.03 0.04 0.02 0.02 0.02 0.02 0.02 0.02 0.03 0.03 0.02 0.02 0.02 0.03 0.02 0.01 0.01 0.01 0.02 0.02 0.04 0.06 0.06 0.08 0.10 0.08 0.05
0.02 0.02 0.02 0.02 0.04 0.04 0.04 0.05 0.04 0.02 0.02 0.02 0.02 0.02 0.01 0.02 0.02 0.03 0.03 0.02 0.02 0.02 0.03 0.02 0.02 0.02 0.02 0.02 0.02 0.03 0.03 0.02 0.01 0.01 0.01 0.01 0.04 0.06 0.06 0.06 0.05 0.06 0.05
0.01 0.01 0.01 0.02 0.03 0.04 0.04 0.04 0.04 0.03 0.03 0.03 0.02 0.02 0.01 0.01 0.02 0.03 0.03 0.03 0.03 0.03 0.03 0.03 0.02 0.01 0.01 0.01 0.02 0.02 0.02 0.03 0.02 0.01 0.01 0.01 0.02 0.05 0.07 0.06 0.04 0.04 0.04
0.01 0.01 0.01 0.02 0.03 0.04 0.04 0.02 0.03 0.03 0.03 0.03 0.03 0.02 0.01 0.01 0.01 0.01 0.03 0.03 0.03 0.04 0.04 0.04 0.02 0.01 0.01 0.01 0.01 0.01 0.02 0.03 0.02 0.02 0.01 0.01 0.01 0.03 0.05 0.06 0.05 0.03 0.03
0.01 0.01 0.01 0.02 0.03 0.03 0.04 0.02 0.02 0.02 0.02 0.02 0.03 0.02 0.01 0.01 0.01 0.01 0.01 0.02 0.03 0.03 0.04 0.04 0.03 0.02 0.01 0.01 0.01 0.01 0.01 0.02 0.03 0.03 0.02 0.01 0.01 0.02 0.04 0.05 0.05 0.05 0.04
0.01 0.01 0.01 0.02 0.03 0.03 0.03 0.02 0.02 0.02 0.02 0.02 0.02 0.02 0.01 0.01 0.00 0.00 0.00 0.01 0.01 0.02 0.03 0.03 0.04 0.04 0.03 0.01 0.01 0.01 0.01 0.01 0.02 0.04 0.04 0.02 0.01 0.02 0.03 0.05 0.05 0.07 0.08
0.01 0.01 0.01 0.01 0.02 0.03 0.03 0.02 0.02 0.02 0.02 0.02 0.01 0.02 0.02 0.01 0.01 0.00 0.00 0.00 0.00 0.01 0.01 0.01 0.02 0.04 0.05 0.03 0.02 0.02 0.02 0.02 0.01 0.02 0.04 0.04 0.02 0.01 0.02 0.04 0.05 0.05 0.08
0.00 0.00 0.01 0.02 0.02 0.03 0.03 0.03 0.03 0.01 0.02 0.02 0.02 0.02 0.02 0.02 0.01 0.01 0.00 0.00 0.00 0.00 0.00 0.00 0.01 0.02 0.03 0.04 0.03 0.04 0.04 0.04 0.03 0.02 0.03 0.04 0.03 0.02 0.01 0.03 0.04 0.04 0.03
0.00 0.00 0.01 0.02 0.03 0.03 0.03 0.03 0.03 0.02 0.02 0.03 0.03 0.03 0.02 0.02 0.02 0.01 0.01 0.01 0.00 0.00 0.00 0.00 0.00 0.01 0.02 0.02 0.03 0.03 0.05 0.06 0.05 0.04 0.03 0.03 0.04 0.02 0.01 0.02 0.03 0.03 0.02
0.00 0.00 0.01 0.02 0.03 0.04 0.04 0.03 0.04 0.04 0.04 0.04 0.04 0.03 0.03 0.03 0.03 0.03 0.01 0.01 0.01 0.01 0.01 0.00 0.00 0.01 0.01 0.02 0.02 0.02 0.04 0.06 0.07 0.07 0.06 0.04 0.04 0.03 0.02 0.01 0.02 0.03 0.02
0.00 0.00 0.00 0.02 0.04 0.04 0.04 0.04 0.03 0.04 0.04 0.05 0.05 0.04 0.04 0.04 0.04 0.03 0.02 0.01 0.01 0.01 0.01 0.01 0.01 0.01 0.01 0.02 0.03 0.03 0.03 0.04 0.06 0.07 0.07 0.07 0.06 0.05 0.03 0.02 0.02 0.02 0.02
0.00 0.00 0.00 0.01 0.03 0.05 0.05 0.05 0.03 0.02 0.04 0.04 0.05 0.04 0.04 0.04 0.04 0.04 0.02 0.01 0.01 0.01 0.01 0.01 0.01 0.01 0.01 0.02 0.04 0.05 0.04 0.04 0.04 0.06 0.06 0.06 0.06 0.06 0.05 0.03 0.02 0.02 0.02
0.01 0.01 0.01 0.01 0.02 0.04 0.05 0.06 0.05 0.04 0.03 0.04 0.05 0.06 0.05 0.04 0.03 0.03 0.03 0.02 0.01 0.01 0.01 0.01 0.01 0.01 0.01 0.02 0.03 0.05 0.05 0.06 0.05 0.05 0.06 0.05 0.05 0.06 0.06 0.05 0.03 0.02 0.01
0.01 0.01 0.01 0.01 0.01 0.03 0.05 0.06 0.07 0.07 0.04 0.02 0.04 0.06 0.07 0.06 0.04 0.03 0.03 0.02 0.01 0.02 0.02 0.01 0.01 0.01 0.02 0.02 0.03 0.04 0.05 0.06 0.06 0.06 0.06 0.07 0.05 0.04 0.05 0.05 0.04 0.03 0.02
0.01 0.01 0.01 0.02 0.02 0.03 0.04 0.05 0.06 0.06 0.05 0.03 0.03 0.05 0.07 0.07 0.07 0.06 0.04 0.03 0.01 0.01 0.01 0.01 0.02 0.01 0.02 0.02 0.03 0.04 0.05 0.05 0.05 0.06 0.07 0.07 0.08 0.06 0.04 0.04 0.04 0.03 0.02
0.01 0.01 0.01 0.02 0.02 0.03 0.03 0.03 0.04 0.04 0.04 0.03 0.03 0.04 0.06 0.06 0.06 0.05 0.05 0.04 0.02 0.01 0.01 0.01 0.01 0.02 0.02 0.02 0.02 0.04 0.06 0.06 0.06 0.05 0.07 0.09 0.10 0.09 0.07 0.05 0.04 0.04 0.03
MSLP
1019.90 1019.88 1019.89 1019.97 1020.12 1020.34 1020.58 1020.83 1021.02 1021.14 1021.18 1021.16 1021.11 1021.05 1021.01 1021.02 1021.06 1021.13 1021.19 1021.22 1021.21 1021.14 1021.03 1020.90 1020.77 1020.65 1020.55 1020.46 1020.37 1020.27 1020.14 1019.96 1019.76 1019.54 1019.31 1019.11 1018.93 1018.77 1018.64 1018.51 1018.36 1018.17 1017.95
1019.77 1019.79 1019.86 1020.00 1020.22 1020.50 1020.81 1021.09 1021.32 1021.46 1021.52 1021.50 1021.45 1021.41 1021.39 1021.42 1021.49 1021.58 1021.67 1021.72 1021.72 1021.67 1021.58 1021.47 1021.36 1021.26 1021.19 1021.12 1021.04 1020.93 1020.78 1020.58 1020.35 1020.11 1019.87 1019.65 1019.48 1019.34 1019.22 1019.10 1018.95 1018.77 1018.54
1019.70 1019.75 1019.84 1020.01 1020.28 1020.61 1020.96 1021.30 1021.56 1021.74 1021.82 1021.84 1021.82 1021.80 1021.80 1021.85 1021.94 1022.04 1022.12 1022.18 1022.18 1022.13 1022.06 1021.97 1021.88 1021.81 1021.76 1021.71 1021.64 1021.52 1021.36 1021.14 1020.89 1020.63 1020.37 1020.16 1019.98 1019.85 1019.74 1019.63 1019.49 1019.32 1019.09
1019.75 1019.80 1019.90 1020.09 1020.38 1020.73 1021.12 1021.48 1021.79 1022.00 1022.13 1022.18 1022.20 1022.21 1022.24 1022.30 1022.39 1022.48 1022.56 1022.59 1022.59 1022.54 1022.47 1022.40 1022.35 1022.31 1022.28 1022.25 1022.18 1022.07 1021.90 1021.67 1021.40 1021.11 1020.85 1020.62 1020.45 1020.31 1020.21 1020.10 1019.97 1019.80 1019.59
1019.94 1019.98 1020.08 1020.28 1020.57 1020.93 1021.32 1021.70 1022.03 1022.28 1022.45 1022.55 1022.60 1022.65 1022.71 1022.78 1022.86 1022.94 1022.99 1023.01 1022.98 1022.93 1022.87 1022.82 1022.78 1022.78 1022.78 1022.76 1022.71 1022.60 1022.42 1022.18 1021.89 1021.60 1021.32 1021.08 1020.89 1020.74 1020.63 1020.52 1020.39 1020.22 1020.02
1020.25 1020.30 1020.40 1020.58 1020.87 1021.22 1021.61 1021.99 1022.34 1022.61 1022.81 1022.95 1023.05 1023.13 1023.21 1023.29 1023.37 1023.43 1023.46 1023.45 1023.41 1023.35 1023.30 1023.26 1023.25 1023.26 1023.29 1023.29 1023.25 1023.14 1022.96 1022.71 1022.41 1022.10 1021.80 1021.53 1021.32 1021.15 1021.02 1020.89 1020.75 1020.59 1020.41
1020.63 1020.70 1020.80 1020.99 1021.26 1021.60 1021.98 1022.36 1022.71 1023.00 1023.23 1023.40 1023.54 1023.65 1023.76 1023.85 1023.93 1023.98 1023.99 1023.97 1023.92 1023.85 1023.80 1023.77 1023.77 1023.81 1023.84 1023.85 1023.82 1023.71 1023.52 1023.26 1022.95 1022.62 1022.30 1022.01 1021.76 1021.56 1021.40 1021.24 1021.09 1020.93 1020.76
1021.01 1021.11 1021.24 1021.44 1021.71 1022.04 1022.41 1022.78 1023.13 1023.43 1023.68 1023.89 1024.06 1024.21 1024.34 1024.46 1024.54 1024.59 1024.60 1024.57 1024.52 1024.45 1024.40 1024.37 1024.38 1024.41 1024.45 1024.46 1024.41 1024.30 1024.10 1023.84 1023.51 1023.16 1022.82 1022.50 1022.22 1021.99 1021.79 1021.61 1021.44 1021.28 1021.12
1021.29 1021.44 1021.62 1021.86 1022.15 1022.48 1022.85 1023.22 1023.56 1023.88 1024.15 1024.39 1024.60 1024.79 1024.95 1025.09 1025.20 1025.26 1025.28 1025.25 1025.20 1025.13 1025.07 1025.04 1025.04 1025.06 1025.08 1025.07 1025.01 1024.89 1024.68 1024.41 1024.08 1023.72 1023.36 1023.02 1022.71 1022.44 1022.21 1022.00 1021.81 1021.65 1021.49
1021.43 1021.65 1021.89 1022.18 1022.50 1022.86 1023.24 1023.62 1023.98 1024.31 1024.60 1024.87 1025.12 1025.34 1025.54 1025.71 1025.85 1025.94 1025.97 1025.96 1025.91 1025.84 1025.78 1025.73 1025.70 1025.69 1025.68 1025.65 1025.57 1025.43 1025.22 1024.95 1024.62 1024.27 1023.90 1023.55 1023.23 1022.94 1022.68 1022.45 1022.24 1022.07 1021.92
1021.40 1021.70 1022.02 1022.36 1022.74 1023.14 1023.55 1023.95 1024.33 1024.68 1025.00 1025.29 1025.57 1025.83 1026.06 1026.27 1026.44 1026.55 1026.61 1026.61 1026.57 1026.51 1026.43 1026.36 1026.31 1026.26 1026.22 1026.15 1026.05 1025.90 1025.69 1025.43 1025.12 1024.79 1024.44 1024.10 1023.77 1023.47 1023.20 1022.95 1022.74 1022.55 1022.40
1021.21 1021.60 1022.00 1022.42 1022.86 1023.31 1023.76 1024.19 1024.59 1024.96 1025.31 1025.63 1025.93 1026.21 1026.48 1026.71 1026.91 1027.05 1027.14 1027.16 1027.14 1027.08 1026.99 1026.90 1026.81 1026.72 1026.64 1026.55 1026.43 1026.27 1026.08 1025.84 1025.57 1025.27 1024.96 1024.65 1024.35 1024.05 1023.78 1023.53 1023.30 1023.10 1022.93
1020.91 1021.38 1021.86 1022.36 1022.87 1023.37 1023.87 1024.33 1024.76 1025.16 1025.52 1025.85 1026.17 1026.47 1026.75 1027.01 1027.23 1027.40 1027.51 1027.57 1027.56 1027.50 1027.41 1027.30 1027.18 1027.06 1026.95 1026.82 1026.69 1026.54 1026.37 1026.18 1025.96 1025.72 1025.46 1025.20 1024.93 1024.67 1024.40 1024.15 1023.92 1023.70 1023.51
1020.54 1021.09 1021.65 1022.22 1022.80 1023.36 1023.90 1024.40 1024.86 1025.27 1025.64 1025.98 1026.30 1026.60 1026.89 1027.15 1027.39 1027.59 1027.73 1027.81 1027.82 1027.78 1027.69 1027.57 1027.43 1027.29 1027.14 1027.00 1026.86 1026.73 1026.59 1026.44 1026.29 1026.12 1025.93 1025.73 1025.52 1025.29 1025.05 1024.81 1024.57 1024.34 1024.12
1020.13 1020.76 1021.39 1022.03 1022.66 1023.28 1023.87 1024.41 1024.89 1025.32 1025.69 1026.03 1026.33 1026.62 1026.91 1027.18 1027.43 1027.64 1027.81 1027.92 1027.97 1027.95 1027.87 1027.75 1027.60 1027.43 1027.27 1027.11 1026.97 1026.85 1026.74 1026.65 1026.56 1026.46 1026.35 1026.22 1026.07 1025.89 1025.68 1025.45 1025.21 1024.96 1024.72
1019.68 1020.37 1021.07 1021.77 1022.47 1023.15 1023.79 1024.36 1024.88 1025.32 1025.69 1026.02 1026.31 1026.59 1026.85 1027.12 1027.37 1027.61 1027.80 1027.95 1028.03 1028.04 1027.98 1027.87 1027.72 1027.54 1027.35 1027.18 1027.04 1026.93 1026.85 1026.79 1026.76 1026.73 1026.69 1026.63 1026.54 1026.41 1026.24 1026.04 1025.80 1025.55 1025.29
1019.14 1019.90 1020.67 1021.44 1022.20 1022.94 1023.63 1024.25 1024.80 1025.26 1025.65 1025.97 1026.25 1026.52 1026.77 1027.03 1027.29 1027.54 1027.77 1027.95 1028.06 1028.11 1028.08 1027.98 1027.83 1027.64 1027.44 1027.25 1027.09 1026.97 1026.90 1026.88 1026.88 1026.90 1026.92 1026.93 1026.90 1026.82 1026.69 1026.52 1026.30 1026.05 1025.78
1018.49 1019.31 1020.14 1020.98 1021.81 1022.61 1023.36 1024.05 1024.64 1025.15 1025.56 1025.90 1026.18 1026.44 1026.69 1026.95 1027.21 1027.48 1027.73 1027.95 1028.10 1028.18 1028.18 1028.10 1027.95 1027.75 1027.53 1027.32 1027.14 1027.00 1026.92 1026.90 1026.92 1026.98 1027.04 1027.09 1027.11 1027.08 1027.00 1026.86 1026.67 1026.44 1026.17
1017.68 1018.56 1019.45 1020.35 1021.25 1022.13 1022.96 1023.71 1024.38 1024.94 1025.40 1025.77 1026.08 1026.35 1026.61 1026.88 1027.16 1027.44 1027.72 1027.96 1028.15 1028.26 1028.29 1028.22 1028.08 1027.88 1027.64 1027.40 1027.19 1027.02 1026.92 1026.88 1026.89 1026.95 1027.03 1027.11 1027.17 1027.18 1027.14 1027.04 1026.89 1026.68 1026.43
1016.73 1017.66 1018.60 1019.56 1020.52 1021.47 1022.38 1023.22 1023.97 1024.61 1025.14 1025.57 1025.92 1026.23 1026.52 1026.81 1027.10 1027.41 1027.70 1027.97 1028.19 1028.33 1028.38 1028.34 1028.20 1028.00 1027.75 1027.49 1027.25 1027.05 1026.91 1026.84 1026.83 1026.87 1026.95 1027.03 1027.10 1027.14 1027.13 1027.07 1026.96 1026.78 1026.57
1015.68 1016.64 1017.62 1018.62 1019.64 1020.65 1021.64 1022.56 1023.39 1024.13 1024.74 1025.26 1025.68 1026.05 1026.38 1026.70 1027.02 1027.34 1027.66 1027.95 1028.18 1028.35 1028.43 1028.41 1028.30 1028.11 1027.86 1027.59 1027.33 1027.10 1026.93 1026.82 1026.77 1026.78 1026.83 1026.90 1026.96 1027.01 1027.02 1026.98 1026.89 1026.75 1026.57
1014.62 1015.59 1016.58 1017.60 1018.65 1019.71 1020.75 1021.74 1022.66 1023.49 1024.20 1024.81 1025.32 1025.76 1026.15 1026.51 1026.87 1027.21 1027.55 1027.85 1028.11 1028.30 1028.41 1028.42 1028.34 1028.18 1027.96 1027.71 1027.45 1027.21 1027.01 1026.86 1026.77 1026.74 1026.75 1026.77 1026.81 1026.84 1026.84 1026.81 1026.74 1026.62 1026.46
1013.64 1014.60 1015.58 1016.60 1017.64 1018.71 1019.77 1020.82 1021.81 1022.71 1023.52 1024.22 1024.82 1025.34 1025.80 1026.22 1026.62 1026.99 1027.35 1027.67 1027.95 1028.16 1028.30 1028.36 1028.33 1028.22 1028.06 1027.84 1027.61 1027.39 1027.18 1027.01 1026.89 1026.80 1026.75 1026.72 1026.71 1026.69 1026.66 1026.61 1026.52 1026.41 1026.26
1012.86 1013.78 1014.72 1015.68 1016.69 1017.73 1018.79 1019.85 1020.87 1021.84 1022.72 1023.51 1024.20 1024.81 1025.34 1025.83 1026.27 1026.68 1027.06 1027.40 1027.70 1027.95 1028.13 1028.24 1028.27 1028.24 1028.14 1028.00 1027.82 1027.63 1027.45 1027.27 1027.11 1026.98 1026.87 1026.77 1026.68 1026.60 1026.51 1026.41 1026.30 1026.16 1025.99
1012.30 1013.17 1014.04 1014.93 1015.86 1016.84 1017.86 1018.89 1019.92 1020.92 1021.85 1022.71 1023.49 1024.18 1024.79 1025.34 1025.84 1026.29 1026.70 1027.07 1027.39 1027.67 1027.90 1028.07 1028.17 1028.22 1028.20 1028.14 1028.04 1027.91 1027.76 1027.60 1027.42 1027.25 1027.08 1026.91 1026.74 1026.57 1026.41 1026.24 1026.07 1025.89 1025.70
1011.95 1012.75 1013.54 1014.34 1015.18 1016.08 1017.03 1018.01 1019.02 1020.02 1020.98 1021.88 1022.72 1023.48 1024.17 1024.79 1025.35 1025.85 1026.30 1026.70 1027.06 1027.37 1027.64 1027.86 1028.04 1028.16 1028.23 1028.26 1028.24 1028.17 1028.07 1027.93 1027.75 1027.55 1027.33 1027.09 1026.84 1026.59 1026.33 1026.09 1025.85 1025.61 1025.38
Thickness
5664 5665 5665 5668 5671 5673 5676 5677 5679 5681 5683 5684 5686 5687 5688 5690 5691 5693 5694 5695 5696 5697 5698 5699 5700 5700 5701 5701 5701 5702 5703 5704 5705 5705 5706 5706 5707 5707 5707 5708 5710 5710 5709
5659 5661 5661 5664 5667 5669 5671 5673 5674 5676 5677 5679 5681 5682 5684 5685 5686 5688 5689 5691 5692 5693 5694 5695 5695 5696 5696 5697 5697 5698 5698 5699 5700 5701 5702 5703 5703 5703 5704 5704 5706 5706 5705
5656 5657 5658 5660 5662 5664 5666 5668 5669 5671 5672 5674 5675 5677 5678 5680 5681 5683 5684 5685 5687 5688 5689 5689 5690 5691 5691 5692 5693 5693 5694 5695 5695 5697 5699 5701 5700 5699 5700 5700 5701 5702 5702
5651 5652 5654 5655 5657 5659 5661 5662 5664 5665 5666 5668 5670 5671 5673 5674 5676 5677 5679 5680 5681 5682 5683 5684 5685 5685 5686 5687 5688 5688 5689 5690 5691 5694 5697 5697 5697 5696 5696 5697 5697 5698 5698
5646 5648 5649 5650 5652 5653 5655 5657 5658 5660 5661 5662 5664 5665 5667 5668 5670 5671 5672 5673 5675 5675 5677 5678 5679 5680 5681 5682 5683 5683 5684 5685 5687 5691 5693 5693 5693 5692 5692 5693 5693 5694 5694
5640 5641 5643 5644 5646 5648 5649 5651 5653 5654 5655 5656 5657 5659 5660 5662 5663 5665 5666 5667 5668 5670 5671 5672 5674 5675 5676 5677 5677 5678 5679 5680 5684 5686 5687 5688 5688 5687 5688 5688 5689 5689 5690
5634 5635 5636 5638 5640 5641 5643 5644 5646 5647 5648 5649 5650 5652 5653 5655 5656 5658 5659 5660 5662 5663 5665 5666 5667 5669 5670 5671 5672 5673 5674 5676 5679 5681 5682 5682 5682 5682 5683 5684 5684 5685 5685
5627 5628 5630 5631 5632 5634 5635 5636 5638 5639 5641 5642 5643 5644 5646 5647 5649 5650 5652 5654 5655 5657 5658 5660 5661 5662 5664 5665 5666 5667 5668 5670 5673 5675 5676 5676 5676 5677 5678 5679 5680 5680 5681
5621 5622 5623 5624 5625 5626 5627 5628 5629 5631 5632 5633 5635 5636 5638 5640 5641 5643 5644 5646 5648 5650 5651 5653 5654 5656 5657 5658 5659 5660 5662 5664 5668 5669 5670 5670 5670 5672 5673 5674 5675 5675 5676
5614 5615 5616 5617 5618 5619 5620 5620 5621 5622 5623 5625 5626 5628 5630 5631 5633 5635 5636 5638 5640 5642 5643 5645 5647 5648 5650 5651 5652 5654 5656 5658 5661 5662 5663 5664 5664 5666 5667 5668 5669 5670 5670
5607 5608 5609 5609 5610 5611 5612 5612 5613 5613 5614 5616 5618 5619 5621 5624 5625 5627 5628 5629 5631 5633 5635 5637 5639 5641 5642 5644 5645 5647 5649 5652 5654 5655 5656 5656 5658 5660 5661 5662 5663 5664 5664
5600 5600 5600 5601 5602 5603 5605 5605 5605 5605 5606 5608 5609 5611 5613 5615 5616 5618 5619 5621 5623 5625 5627 5629 5631 5633 5635 5637 5639 5641 5643 5645 5646 5647 5648 5649 5651 5653 5654 5655 5656 5657 5658
5592 5592 5592 5592 5594 5595 5596 5597 5597 5597 5597 5599 5601 5602 5604 5606 5608 5609 5611 5612 5614 5617 5619 5620 5623 5625 5627 5629 5631 5634 5636 5637 5639 5640 5641 5642 5644 5646 5647 5648 5649 5651 5651
5584 5584 5583 5584 5585 5586 5587 5588 5589 5589 5589 5590 5591 5593 5596 5597 5599 5600 5602 5603 5605 5607 5609 5612 5614 5616 5619 5621 5623 5626 5628 5630 5631 5632 5633 5634 5636 5638 5639 5641 5642 5643 5644
5575 5575 5575 5575 5576 5577 5578 5579 5580 5580 5581 5581 5582 5584 5586 5588 5590 5591 5592 5593 5595 5597 5599 5602 5605 5607 5610 5612 5615 5617 5619 5622 5623 5625 5626 5626 5628 5630 5631 5633 5634 5636 5637
5567 5566 5566 5566 5567 5568 5569 5570 5571 5571 5572 5572 5573 5574 5576 5578 5580 5581 5582 5584 5585 5587 5589 5592 5595 5598 5601 5603 5605 5608 5610 5613 5615 5616 5618 5619 5620 5621 5623 5625 5626 5628 5629
5558 5558 5557 5557 5558 5559 5560 5561 5562 5562 5563 5563 5564 5564 5565 5567 5569 5570 5572 5573 5574 5576 5578 5582 5585 5588 5591 5593 5595 5598 5601 5603 5606 5608 5610 5611 5612 5613 5615 5616 5618 5619 5621
5549 5549 5549 5549 5549 5550 5551 5551 5552 5553 5553 5554 5555 5555 5555 5556 5557 5559 5560 5561 5563 5565 5568 5571 5574 5577 5580 5583 5585 5588 5591 5593 5596 5599 5601 5602 5604 5605 5606 5607 5608 5610 5612
5541 5540 5540 5540 5540 5540 5540 5541 5542 5543 5543 5544 5544 5545 5545 5545 5545 5547 5548 5549 5551 5553 5556 5559 5562 5565 5568 5571 5574 5577 5581 5583 5586 5589 5592 5593 5595 5596 5598 5599 5599 5600 5602
5531 5530 5530 5530 5530 5530 5530 5531 5532 5533 5533 5533 5534 5534 5534 5534 5534 5535 5536 5538 5539 5542 5544 5546 5550 5552 5556 5559 5563 5567 5570 5573 5576 5579 5582 5584 5585 5587 5588 5590 5591 5591 5592
5521 5520 5521 5520 5520 5519 5520 5522 5523 5524 5524 5523 5523 5523 5523 5523 5523 5524 5525 5526 5527 5530 5531 5534 5537 5540 5543 5547 5552 5556 5560 5563 5567 5569 5572 5574 5576 5577 5579 5580 5582 5582 5583
5511 5510 5510 5510 5510 5509 5510 5511 5512 5514 5514 5513 5512 5511 5512 5512 5512 5513 5513 5515 5516 5517 5519 5521 5524 5527 5530 5533 5538 5544 5550 5555 5557 5558 5561 5563 5565 5567 5568 5570 5571 5572 5574
5501 5500 5499 5499 5498 5498 5498 5498 5500 5501 5501 5501 5502 5501 5501 5502 5502 5502 5503 5504 5504 5506 5507 5509 5511 5513 5517 5520 5524 5528 5535 5542 5542 5548 5551 5552 5554 5556 5557 5559 5560 5561 5563
5491 5489 5487 5486 5486 5486 5485 5487 5488 5492 5494 5494 5492 5492 5491 5491 5492 5491 5492 5493 5494 5494 5495 5497 5498 5500 5503 5507 5510 5514 5518 5522 5525 5532 5537 5540 5542 5544 5546 5547 5548 5550 5551
5480 5478 5476 5474 5474 5473 5473 5475 5476 5479 5481 5482 5481 5480 5480 5480 5480 5480 5480 5481 5482 5483 5484 5485 5486 5487 5490 5493 5496 5500 5504 5507 5510 5515 5522 5525 5528 5531 5533 5535 5536 5538 5539
5469 5467 5465 5464 5463 5462 5462 5462 5464 5466 5467 5468 5469 5469 5469 5469 5469 5469 5469 5470 5470 5471 5472 5473 5474 5475 5477 5479 5482 5485 5490 5494 5498 5502 5506 5509 5513 5517 5519 5522 5523 5525 5526